Weather in Skala

Greece     37°19′24″N   26°32′38″E
temp.,
°C
wind,
m/s
gust,
m/s
humid.,
%
clouds,
%
prec.,
mm/h
press.,
hPa
HPBL,
m
8 may, sat
sat800:00+20se797318 0.0 101289
03:00+19se3381100 0.0 101135
06:00+19se4682100 0.0 101186
09:00+19e6981100 0.0 1011145
12:00+20ese81276100 0.0 1011145
15:00+20ene457961 0.0 101059
18:00+20n11842 0.0 101013
21:00+20n44780 0.0 101127
9 may, sun
sun900:00+19n68790 0.0 101299
03:00+19nnw811790 0.0 1012127
06:00+18n1316820 0.0 1013354
09:00+18n1315800 0.0 1015420
12:00+18n1516716 0.0 1016444
15:00+20nnw1519584 0.0 1015350
18:00+20nnw1620565 0.0 1015349
21:00+19nnw1618635 0.0 1015365
10 may, mon
mon1000:00+17nnw1517695 0.0 1015390
03:00+17n1417685 0.0 1014444
06:00+16n1415660 0.0 1014492
09:00+16n1414640 0.0 1015502
12:00+17n1314620 0.0 1015535
15:00+18nnw1114610 0.0 1014448
18:00+19nnw1217590 0.0 1013354
21:00+19nnw1317650 0.0 1013414
11 may, tue
tue1100:00+18nnw1316690 0.0 1013421
03:00+17nnw1315710 0.0 1012505
06:00+17nnw1315675 0.0 1012474
09:00+17nnw1313655 0.0 1012476
12:00+17nnw1113670 0.0 1013479
15:00+18nnw1113660 0.0 1012446
18:00+19nw914630 0.0 1011336
21:00+19nw814754 0.0 1010299
12 may, wed
wed1200:00+19nw914710 0.0 1010327
03:00+18nnw912760 0.0 1009475
06:00+17nnw1012702 0.0 1009460
09:00+17nnw1011640 0.0 1010451
12:00+18nnw7766100 0.0 1010400
15:00+18w3366100 0.0 1010256
18:00+18w5570100 0.0 1009188
21:00+18sw5671100 0.0 1009239